Powrót do katalogu

NOAA 17 DEB

AktywnyPO
NORAD 48747·DEBRIS·🇺🇸 United States

Wystrzelony Jun 24, 2002 z Vandenberg Space Force Base

Loading…

Następne Przeloty (najbliższe 24 godziny)

TLE

ŚwieżeSource: Space-Track

Epoka: Sep 14, 2026, 04:49 UTC

1 48747U 02032CG  26257.20137402  .00029877  00000-0  24092-2 0  9990
2 48747  99.0303  35.1040 0017762  80.1923 280.1301 14.99718934290466

Śledź NOAA 17 DEB w czasie rzeczywistym z AllMySat

Download on the App Store